TimePDT,TemperatureF,Dew PointF,Humidity,Sea Level PressureIn,VisibilityMPH,Wind Direction,Wind SpeedMPH,Gust SpeedMPH,PrecipitationIn,Events,Conditions,WindDirDegrees,DateUTC
12:59 AM,44.8,33.4,64,29.94,10.0,SSE,4.6,-,N/A,,Clear,150,2012-10-08 07:59:00
1:58 AM,40.6,31.5,70,29.94,10.0,ENE,2.3,-,N/A,,Clear,70,2012-10-08 08:58:00
2:59 AM,41.2,32.5,71,29.94,10.0,SE,2.3,-,N/A,,Clear,130,2012-10-08 09:59:00
3:58 AM,40.3,33.4,77,29.94,10.0,SE,2.3,-,N/A,,Clear,130,2012-10-08 10:58:00
4:59 AM,39.6,33.8,80,29.95,10.0,SE,4.6,-,N/A,,Clear,130,2012-10-08 11:59:00
5:58 AM,37.8,32.7,82,29.96,10.0,ESE,2.3,-,N/A,,Clear,110,2012-10-08 12:58:00
6:59 AM,37.4,32.7,83,29.96,10.0,SE,6.9,-,N/A,,Clear,140,2012-10-08 13:59:00
7:58 AM,36.9,32.2,83,29.97,10.0,ESE,2.3,-,N/A,,Clear,120,2012-10-08 14:58:00
8:59 AM,45.7,36.5,70,29.98,10.0,SE,4.6,-,N/A,,Clear,130,2012-10-08 15:59:00
9:58 AM,54.0,37.4,54,30.00,10.0,WNW,1.2,-,N/A,,Clear,300,2012-10-08 16:58:00
10:59 AM,59.4,38.3,46,29.99,10.0,Calm,Calm,-,N/A,,Clear,0,2012-10-08 17:59:00
11:58 AM,66.0,36.1,33,29.99,10.0,South,6.9,-,N/A,,Clear,170,2012-10-08 18:58:00
12:59 PM,68.0,38.8,34,29.97,10.0,West,5.8,-,N/A,,Clear,260,2012-10-08 19:59:00
1:58 PM,68.5,39.9,35,29.96,10.0,West,4.6,-,N/A,,Clear,270,2012-10-08 20:58:00
2:59 PM,69.6,41.2,36,29.96,10.0,West,8.1,-,N/A,,Clear,270,2012-10-08 21:59:00
3:58 PM,69.1,45.0,42,29.96,10.0,West,10.4,-,N/A,,Clear,260,2012-10-08 22:58:00
4:59 PM,66.9,45.3,46,29.98,10.0,West,9.2,-,N/A,,Clear,270,2012-10-08 23:59:00
5:58 PM,64.6,47.3,53,29.98,10.0,West,6.9,-,N/A,,Clear,280,2012-10-09 00:58:00
6:59 PM,60.4,46.8,61,29.98,10.0,West,6.9,-,N/A,,Clear,270,2012-10-09 01:59:00
7:58 PM,56.5,46.9,70,30.00,10.0,WNW,6.9,-,N/A,,Clear,290,2012-10-09 02:58:00
8:59 PM,53.8,47.1,78,30.02,10.0,West,3.5,-,N/A,,Clear,270,2012-10-09 03:59:00
9:58 PM,51.6,46.9,84,30.04,10.0,WSW,2.3,-,N/A,,Clear,250,2012-10-09 04:58:00
10:59 PM,49.1,45.3,87,30.06,10.0,SE,2.3,-,N/A,,Clear,130,2012-10-09 05:59:00
11:58 PM,44.8,41.9,90,30.06,10.0,SSE,3.5,-,N/A,,Clear,150,2012-10-09 06:58:00